This is the latest recevied weather packets stored in our database for station/object KC3HIX. If no packets are shown the sender has not sent any weather packets the latest 10 day(s).
| Time | Temp. | Humidity | Pressure | Rain* | Wind** | Luminosity | Snow |
|---|---|---|---|---|---|---|---|
| 1778208304 | 11.11° C | 65% | 1010.3 hPa | 0 mm | - | - | - |
| 1778207404 | 12.22° C | 60% | 1009.9 hPa | 0 mm | - | - | - |
| 1778206204 | 12.78° C | 64% | 1009.9 hPa | 0 mm | - | - | - |
| 1778205603 | 12.78° C | 61% | 1009.9 hPa | 0 mm | - | - | - |
| 1778205304 | 12.78° C | 59% | 1009.6 hPa | 0 mm | - | - | - |
| 1778202324 | 13.89° C | 55% | 1008.6 hPa | 0 mm | - | - | - |
| 1778202003 | 13.89° C | 53% | 1008.6 hPa | 0 mm | - | - | - |
| 1778201103 | 14.44° C | 46% | 1008.6 hPa | 0 mm | - | - | - |
| 1778192104 | 17.78° C | 37% | 1007.9 hPa | 0 mm | - | - | - |
| 1778190904 | 17.78° C | 35% | 1007.9 hPa | 0 mm | - | - | - |
| 1778189704 | 17.78° C | 36% | 1007.9 hPa | 0 mm | - | - | - |
| 1778189125 | 18.33° C | 35% | 1007.5 hPa | 0 mm | - | - | - |
| 1778188504 | 18.33° C | 34% | 1007.9 hPa | 0 mm | - | - | - |
| 1778187004 | 18.89° C | 30% | 1007.9 hPa | 0 mm | - | - | - |
| 1778185804 | 19.44° C | 33% | 1007.9 hPa | 0 mm | - | - | - |
| 1778185204 | 18.89° C | 38% | 1007.9 hPa | 0 mm | - | - | - |
| 1778184625 | 18.33° C | 34% | 1008.2 hPa | 0 mm | - | - | - |
| 1778184004 | 17.78° C | 33% | 1008.2 hPa | 0 mm | - | - | - |
| 1778181325 | 18.89° C | 40% | 1008.9 hPa | 0 mm | - | - | - |
| 1778181003 | 18.33° C | 38% | 1008.9 hPa | 0 mm | - | - | - |
| 1778179225 | 16.67° C | 37% | 1008.9 hPa | 0 mm | - | - | - |
| 1778177403 | 16.67° C | 45% | 1009.6 hPa | 0 mm | - | - | - |
| 1778176203 | 17.22° C | 38% | 1009.9 hPa | 0 mm | - | - | - |
| 1778175603 | 17.22° C | 41% | 1009.9 hPa | 0 mm | - | - | - |
| 1778172304 | 16.11° C | 36% | 1010.6 hPa | 0 mm | - | - | - |
* Rain latest hour (hover to see other rain measurements)
** Current wind speed in m/s (hover to see current wind gust speed)